Location: Bannatyne
(13.0833°N, 59.5333°W)
Time: 22:52:16
(UTC+00:00)

Transit 2A - Pass Details

Date: 06 February 2020
Orbit: 600 x 959 km, 66.7° (Epoch: 20 February)

Event Time Altitude Azimuth Distance (km) Brightness Sun altitude
Rises 19:19:46 0° 190° (S) 3,060 9.6 35.5°
Reaches altitude 10° 19:22:14 10° 184° (S) 2,092 8.8 34.9°
Maximum altitude 19:26:45 48° 110° (ESE) 822 6.3 34.0°
Drops below altitude 10° 19:30:59 10° 35° (NE) 1,960 7.8 33.1°
Sets 19:33:13 0° 30° (NNE) 2,846 8.5 32.6°
